Location: Caltech
(34.1382°N, 118.1253°W)
Time: 20:03:27
(UTC-07:00)

BREEZE M DEB (TANK) - Visible Passes

Search period start: 23 June 2018 00:00
Search period end: 03 July 2018 00:00
Orbit: 341 x 13665 km, 49.6° (Epoch: 23 June)

Date Brightness Start Highest point End Pass type
(mag) Time Alt. Az. Time Alt. Az. Time Alt. Az.
24 Jun 4.8 03:17:12 36° S 03:19:36 53° ESE 03:37:55 10° NE visible
25 Jun 6.0 04:58:01 10° WSW 05:05:18 64° NNW 05:43:20 10° ENE visible
26 Jun 5.5 02:21:30 26° SE 02:22:50 28° ESE 02:34:01 10° NE visible
27 Jun 5.1 04:02:01 25° WSW 04:06:13 80° NW 04:33:09 10° NE visible
28 Jun 6.4 01:25:46 11° ESE 01:26:42 11° E 01:29:19 10° ENE visible
29 Jun 4.4 03:06:16 49° SSW 03:08:04 70° SE 03:27:14 10° NE visible
30 Jun 6.1 04:47:07 10° W 04:54:46 57° NNW 05:34:24 10° ENE visible
01 Jul 5.0 02:10:30 38° ESE 02:10:51 38° ESE 02:23:31 10° NE visible
02 Jul 5.3 03:50:59 25° WSW 03:55:20 68° NNW 04:22:56 10° NE visible
